GFSSW_850_rhum_000.txt.gz
RH
30 32 35 36 37 40 41 41 37 32 26 17 14 16 17 17 22 19 15 12 10 22 16 12 14 16 24 23 21 16 24 24 22 27 24 17 22 39 44 47 44 44 58 59 70
33 36 37 39 41 43 43 43 38 32 25 17 17 19 19 23 22 17 9 9 10 20 19 14 18 22 23 22 20 20 25 20 14 14 27 22 24 34 43 46 47 47 58 67 71
34 38 39 39 44 46 46 44 39 32 24 20 20 19 23 26 27 14 9 17 17 18 20 20 18 18 23 20 19 18 19 12 8 11 13 20 16 30 44 45 45 52 69 78 75
36 42 40 41 44 48 47 43 37 31 24 20 19 23 25 28 33 18 20 21 20 22 21 20 18 20 24 21 17 12 11 8 9 8 12 21 15 35 27 27 31 30 43 70 56
41 43 38 40 43 48 45 40 34 28 24 21 21 26 28 32 21 18 14 14 16 19 21 18 17 19 23 22 12 10 8 11 9 7 10 10 17 28 18 31 35 41 48 49 50
42 40 36 39 43 47 41 37 30 24 22 21 25 29 31 45 19 19 15 15 16 16 18 19 13 12 17 11 13 11 9 10 11 8 7 10 12 11 12 32 39 37 41 43 44
41 43 37 38 43 43 39 34 26 23 22 26 28 31 33 18 18 17 14 13 14 13 15 16 14 15 16 12 8 9 10 11 11 12 12 11 14 14 22 41 38 39 43 51 58
47 46 37 39 40 37 34 28 24 22 26 28 32 34 23 16 16 16 12 12 12 11 12 14 14 17 13 10 13 14 17 15 11 14 15 10 13 19 42 40 46 44 43 45 49
49 47 39 38 37 32 28 23 25 27 29 34 38 38 20 15 15 13 12 11 12 13 13 14 13 12 11 17 18 19 19 16 14 16 16 15 24 41 31 49 53 51 49 47 46
48 45 37 37 32 29 26 28 29 32 36 41 48 38 13 17 12 13 12 10 14 11 11 12 12 20 23 16 20 16 17 17 17 17 44 40 60 60 46 47 57 53 51 51 51
48 39 35 35 30 29 28 32 39 45 42 19 20 21 18 18 12 13 11 10 15 14 21 19 25 23 18 17 14 16 17 18 20 25 48 57 60 60 66 64 65 64 60 56 51
45 36 32 29 27 28 30 45 56 47 41 17 17 19 19 20 15 14 11 15 17 22 20 25 24 19 25 26 25 26 29 34 32 34 47 50 52 50 53 61 67 66 67 63 63
41 31 30 27 29 29 36 41 51 49 42 22 20 19 18 18 16 16 16 18 19 21 24 26 20 22 26 30 31 34 28 28 39 42 42 44 50 53 49 61 63 62 60 57 52
38 30 33 27 34 31 31 44 50 44 38 26 17 16 18 18 18 18 18 18 23 27 27 30 28 26 28 29 31 31 28 33 45 44 51 38 70 46 53 62 63 60 57 52 49
34 30 31 31 37 41 50 30 35 40 50 21 18 16 18 20 16 21 23 18 23 26 27 30 28 30 29 26 28 32 30 32 31 38 39 42 62 51 56 65 65 62 57 52 46
33 34 36 47 49 52 29 27 31 66 47 22 19 18 20 22 22 22 22 20 23 33 32 31 26 27 26 28 26 29 38 45 51 52 60 44 54 60 67 62 62 58 55 50 48
38 36 33 48 54 34 29 24 58 71 27 25 24 20 23 31 32 30 33 37 33 37 41 32 31 28 26 29 29 38 44 64 58 69 71 49 52 51 48 52 54 55 51 50 49
48 43 41 52 39 31 31 38 46 42 35 22 26 25 28 30 33 34 33 38 34 38 47 43 45 28 25 27 31 33 43 65 57 78 61 46 58 51 43 39 42 42 46 52 53
46 47 54 32 30 30 28 68 58 49 26 28 28 30 32 30 33 37 37 37 36 34 41 43 36 27 25 26 30 34 44 40 69 67 67 65 47 43 52 52 47 47 51 55 58
45 56 37 27 28 27 59 66 58 48 31 26 31 32 36 33 36 40 39 40 37 38 34 39 35 30 25 29 31 30 37 43 66 54 64 64 58 64 56 58 55 55 52 55 58
57 43 39 30 27 27 60 62 57 41 32 24 32 36 34 34 40 44 43 43 44 41 36 36 39 37 31 36 37 38 40 55 58 69 68 81 68 51 53 55 54 52 51 54 56
51 46 40 30 34 66 52 57 45 31 28 33 34 30 35 44 51 51 49 46 48 46 35 41 53 62 34 32 36 32 36 41 57 44 85 82 56 55 58 47 43 57 59 60 58
39 62 50 31 59 82 47 47 42 30 31 32 36 38 45 56 57 57 56 46 36 42 43 42 56 70 50 37 34 33 46 55 59 72 70 76 55 62 65 65 61 66 64 61 57
37 88 73 55 30 41 37 37 41 34 34 33 41 41 50 58 63 64 59 49 39 46 48 42 57 49 57 42 43 34 44 47 45 69 63 70 40 61 70 74 75 70 64 61 59
38 68 64 88 76 50 37 42 42 38 34 33 37 39 48 56 59 64 58 48 45 50 60 48 51 50 58 60 44 34 35 54 47 46 51 47 52 43 68 74 72 65 63 62 62
46 51 51 59 50 65 64 50 46 39 39 36 39 48 43 57 47 64 56 46 38 64 67 62 69 57 62 70 66 46 41 45 50 46 58 54 55 62 62 62 68 65 64 63 60
51 45 40 72 70 74 78 55 50 44 47 44 44 55 51 55 54 55 51 56 58 63 74 69 87 56 43 74 60 50 46 49 46 47 52 65 51 74 78 71 67 64 63 60 58

GFSSW_850_rhum_003.txt.gz
RH
22 26 28 32 34 36 38 41 40 38 35 30 24 18 18 15 18 22 16 11 11 16 19 16 18 15 23 22 22 18 18 28 23 24 25 22 25 36 45 49 48 47 73 70 73
25 30 32 34 38 37 40 42 40 37 34 30 21 19 17 20 22 18 12 11 13 19 17 14 15 18 25 23 22 18 19 18 18 21 24 20 18 34 43 44 46 57 69 72 74
29 36 37 37 41 38 42 42 40 39 34 27 21 18 20 24 28 22 10 9 13 21 19 15 17 20 24 22 20 20 17 13 9 6 18 22 19 36 40 38 41 62 82 76 92
34 40 40 38 40 38 42 43 40 37 32 24 19 19 24 26 30 20 17 18 20 18 17 19 20 19 23 21 18 15 14 8 6 7 16 18 28 39 31 26 30 36 44 63 87
37 43 41 36 38 39 43 44 39 36 28 21 20 23 28 31 21 19 18 21 19 17 18 17 19 19 25 23 14 13 10 11 8 11 18 12 28 32 14 26 30 40 55 58 61
42 44 37 38 40 42 44 44 37 32 26 20 22 26 30 49 20 20 17 16 19 18 21 21 15 15 19 15 14 11 11 12 9 10 9 14 12 17 17 35 33 39 42 55 58
45 45 43 45 42 46 46 41 33 29 23 21 25 29 31 18 18 17 18 14 14 15 16 17 17 16 17 12 9 10 11 12 14 13 15 12 14 20 47 42 42 72 72 72 68
46 50 50 47 44 46 42 32 28 23 22 26 30 32 24 16 16 16 15 12 12 14 15 17 18 18 15 11 13 13 16 14 12 15 16 10 14 32 40 48 49 56 65 62 62
49 53 52 44 45 43 33 27 24 25 29 32 37 40 21 16 16 14 13 12 12 13 15 15 18 15 11 17 17 19 16 17 16 27 17 18 28 44 37 51 53 47 46 48 50
53 52 49 42 42 36 28 27 28 31 35 42 46 50 16 19 16 13 13 10 14 14 16 16 13 19 17 14 18 17 17 17 17 23 32 38 50 52 60 54 59 57 53 48 44
54 53 43 41 37 30 29 33 47 48 42 23 24 23 20 19 12 12 12 10 14 12 21 19 18 19 18 16 14 16 17 18 20 33 42 51 53 55 62 62 65 66 60 55 51
54 52 38 39 31 27 30 46 49 48 41 21 24 20 17 19 14 13 11 13 16 22 21 22 24 21 28 26 25 26 28 34 34 35 39 45 55 54 57 65 68 66 67 60 61
53 47 37 36 29 29 33 51 52 58 46 26 21 20 18 19 16 16 16 18 20 23 24 27 22 25 27 29 31 32 31 35 34 36 35 38 47 57 57 65 69 71 72 74 75
51 42 37 30 34 32 38 42 63 56 39 26 20 17 19 18 20 20 19 18 23 27 30 30 28 25 27 30 29 34 32 37 39 36 36 34 38 55 58 62 62 66 68 70 72
49 39 35 34 35 35 57 56 54 42 54 24 18 18 20 18 19 24 24 19 27 28 27 31 28 28 30 28 30 35 37 33 32 32 32 37 37 44 55 63 60 61 65 63 60
50 35 38 35 48 47 59 50 44 63 51 22 20 20 25 26 27 24 22 21 24 33 31 32 27 28 27 32 31 38 37 40 43 40 43 38 34 41 56 53 55 58 62 55 47
52 34 38 40 48 52 44 36 59 62 29 25 24 22 28 34 33 32 35 38 32 39 41 31 31 28 27 31 30 34 38 48 49 54 47 46 44 34 38 45 47 51 54 50 46
52 42 41 43 53 39 30 39 39 39 38 23 26 26 31 32 35 34 34 37 35 37 41 34 37 27 28 29 32 36 37 53 57 60 45 45 48 33 36 39 44 47 51 49 49
52 53 48 53 53 38 31 68 46 44 28 30 28 32 35 32 34 38 38 37 36 35 38 41 36 27 28 28 29 33 36 40 58 60 54 46 42 34 42 40 49 53 53 56 52
49 58 47 54 41 31 56 52 43 44 34 28 30 32 38 36 38 39 38 40 37 40 35 39 36 31 29 30 33 31 35 39 47 56 54 45 51 40 49 43 44 51 53 54 52
51 60 53 45 38 28 64 48 50 43 37 29 34 37 36 38 42 43 43 44 44 41 36 35 40 38 33 34 34 35 38 50 45 53 42 48 37 43 43 40 43 44 54 49 53
65 56 48 39 41 62 56 51 45 43 31 36 30 34 38 43 48 50 48 45 48 46 40 41 51 51 34 33 36 32 36 38 44 39 62 61 36 48 52 46 47 47 48 50 54
62 67 55 34 61 77 48 43 42 35 31 33 40 39 47 56 52 56 55 47 39 41 45 43 51 56 39 30 32 35 42 45 52 62 62 73 33 50 60 55 50 50 52 54 59
50 87 71 43 32 44 40 38 35 36 36 35 45 45 55 58 62 66 61 48 42 50 45 39 51 46 46 36 40 41 47 44 40 52 51 58 37 34 48 54 63 63 58 59 58
45 71 66 88 60 44 31 39 41 40 35 33 41 41 52 60 60 66 60 49 52 54 58 45 48 51 57 56 46 34 44 45 37 40 46 40 43 33 38 48 60 68 65 57 55
44 58 56 65 39 46 44 52 46 40 40 36 44 48 45 57 48 66 57 49 44 64 59 58 61 56 62 62 57 48 39 43 49 47 42 46 45 36 52 60 67 66 61 60 56
52 36 27 82 78 59 69 53 49 44 48 44 44 53 50 56 54 55 48 52 57 61 66 61 77 53 48 63 50 49 47 42 47 44 43 53 37 58 62 62 60 66 63 58 55

GFSSW_850_rhum_006.txt.gz
RH
19 22 23 26 29 32 33 36 36 35 37 36 32 21 14 14 13 18 17 14 13 14 18 13 17 19 24 17 19 17 10 12 20 23 32 33 29 28 29 38 44 45 53 73 96
20 23 25 27 33 36 35 37 37 37 38 36 30 17 15 15 20 20 18 14 14 15 18 19 18 20 18 16 18 14 12 14 15 19 20 19 20 28 36 39 40 53 71 89 90
22 23 28 34 38 38 36 38 40 40 39 34 22 16 16 20 27 27 14 11 12 20 19 18 17 21 16 16 17 14 12 10 13 18 16 16 17 23 27 34 33 53 73 93 87
24 26 35 38 39 37 35 39 42 41 37 31 20 18 19 23 23 23 12 9 16 21 19 19 19 18 13 15 14 15 12 10 7 6 15 16 19 24 22 21 30 59 77 90 95
31 32 40 39 40 40 37 41 42 39 34 27 20 17 22 40 27 19 17 17 20 21 21 19 18 15 12 14 15 14 11 10 7 10 17 21 24 24 23 34 47 65 75 77 76
37 36 43 41 46 41 40 43 40 36 30 26 20 20 27 35 21 21 20 18 18 16 22 19 16 16 14 15 12 12 9 8 9 13 13 19 21 17 21 41 50 62 62 66 72
43 42 45 46 49 41 41 41 35 32 26 22 21 24 28 26 19 19 18 19 19 19 22 23 20 16 16 14 10 10 8 8 10 11 11 9 11 20 32 42 50 50 53 59 60
47 46 49 49 49 40 40 37 31 27 24 22 25 28 36 16 16 16 17 14 14 20 24 23 23 20 16 12 10 9 8 10 13 9 12 10 11 23 36 35 41 48 57 60 60
49 50 53 50 48 39 37 33 28 26 25 28 32 38 30 16 17 17 14 14 13 16 18 18 20 18 15 11 10 11 10 10 11 16 10 8 11 26 39 33 35 44 50 53 58
53 53 53 50 43 37 33 28 27 30 31 38 44 52 18 19 18 13 13 13 18 19 22 20 16 14 13 11 14 12 9 8 9 18 11 14 23 26 38 36 35 38 44 48 52
56 55 54 48 39 34 30 30 50 53 38 36 30 33 21 20 16 13 13 14 17 16 15 17 13 12 12 10 10 9 11 10 14 24 23 25 25 28 37 40 42 41 42 44 52
57 56 54 44 37 32 30 33 49 48 33 22 27 20 16 18 18 14 12 12 13 11 16 16 16 17 18 14 12 11 11 17 22 25 22 25 32 32 34 40 41 42 45 50 64
58 56 53 40 36 28 29 36 61 58 45 33 27 25 23 20 15 13 16 18 14 11 16 12 20 20 16 16 16 18 16 22 16 25 23 24 30 34 41 44 49 47 48 55 62
58 58 48 38 37 29 32 40 46 67 26 21 20 22 21 20 18 19 18 17 19 17 17 20 21 19 18 19 22 19 21 21 25 22 20 24 22 35 40 45 46 52 54 60 68
57 56 47 40 39 34 53 57 67 51 37 18 17 19 21 17 19 23 22 19 16 20 22 25 21 20 19 23 24 25 24 23 22 21 23 24 22 34 39 45 47 51 56 62 67
58 54 51 40 37 40 62 70 60 45 34 20 17 18 19 21 22 24 22 22 23 21 20 22 23 20 22 25 23 26 25 25 24 24 29 21 24 21 37 34 42 47 51 55 56
59 54 44 34 53 52 70 65 37 37 23 21 19 18 19 22 24 22 22 22 19 25 25 22 23 21 22 26 26 25 24 28 28 32 32 32 29 18 22 29 36 43 44 50 49
60 57 43 33 60 69 61 32 32 22 22 19 19 20 22 22 26 25 25 24 25 22 22 21 30 22 23 22 22 25 23 25 33 38 22 33 26 18 24 27 34 39 40 44 44
62 64 50 29 42 78 53 54 29 26 20 21 21 22 26 25 23 26 26 25 25 26 19 23 26 23 25 23 22 27 28 27 39 46 40 23 24 24 27 28 33 34 37 40 42
62 64 44 32 46 58 53 40 24 29 27 22 20 20 26 25 22 24 28 29 29 29 28 26 30 25 25 24 26 24 24 32 34 45 39 24 30 23 33 31 31 32 37 37 40
71 68 49 42 61 59 48 31 29 37 35 24 20 24 22 28 24 22 24 31 30 28 26 22 26 31 28 26 24 28 26 28 28 38 29 24 14 26 27 29 32 34 36 37 42
79 55 53 59 53 34 34 28 36 34 36 29 24 23 24 28 28 27 26 28 40 30 29 28 30 40 28 27 27 24 23 20 24 29 42 49 20 26 32 32 29 32 36 39 46
62 56 84 66 52 61 36 29 35 30 27 31 28 28 34 33 38 36 35 43 42 34 32 31 34 40 34 30 27 27 26 23 31 40 38 58 17 26 32 35 34 33 34 44 50
54 68 73 51 37 30 31 29 26 37 31 33 37 38 39 40 43 46 45 42 45 41 40 31 35 33 36 25 26 33 30 25 21 33 25 30 14 18 23 28 31 37 37 46 54
64 45 42 67 42 28 27 25 24 34 34 33 36 33 35 49 45 47 44 41 45 52 44 35 38 35 34 35 31 26 26 28 25 24 29 16 19 14 17 20 25 37 44 47 53
57 52 54 38 35 29 34 26 22 32 33 31 31 36 37 44 34 46 41 37 36 47 42 42 47 46 48 41 36 34 25 26 26 24 27 20 23 16 22 30 34 42 47 48 50
64 41 37 69 37 32 32 26 23 33 48 39 32 39 43 44 47 46 47 42 38 43 49 49 59 46 40 47 44 60 37 25 24 24 27 27 21 25 30 34 34 40 46 47 48

GFSSW_850_rhum_009.txt.gz
RH
20 20 21 23 23 25 26 26 30 34 35 36 34 28 19 13 14 16 26 20 19 13 22 25 22 22 17 13 9 11 12 10 10 18 35 22 22 20 21 23 28 60 41 56 74
21 21 23 25 25 29 32 27 28 34 37 36 32 25 15 16 17 20 21 17 15 12 20 21 20 16 14 12 11 9 10 9 12 20 29 25 20 30 22 29 34 50 51 70 74
21 22 27 28 30 32 34 28 28 36 38 34 29 22 16 17 49 27 20 14 12 15 19 15 14 13 13 11 11 9 12 13 23 17 17 17 16 18 34 30 28 44 57 58 68
22 27 32 32 34 35 34 28 31 38 38 32 27 18 17 22 29 26 14 9 11 18 22 13 12 13 13 11 11 12 11 10 9 13 13 13 12 30 45 57 39 37 52 51 65
25 30 36 36 40 39 37 32 34 38 37 30 23 19 19 59 33 19 15 12 15 20 22 15 14 13 11 10 10 11 10 10 8 9 13 14 15 16 20 26 34 46 53 50 57
28 34 41 40 43 44 39 34 37 36 34 28 20 20 33 39 22 28 19 14 19 21 18 16 14 12 11 10 11 10 11 7 10 12 15 18 14 13 26 30 40 46 43 43 45
28 35 44 44 46 47 41 36 38 35 31 24 20 21 48 31 23 32 22 22 22 20 14 15 14 14 14 14 12 9 9 8 13 13 15 11 13 17 28 31 35 35 35 39 38
30 39 46 47 49 48 39 36 37 32 27 21 19 29 44 27 24 25 30 28 27 22 19 20 21 19 16 12 10 9 9 16 15 10 8 7 14 16 24 29 30 32 35 38 40
31 41 48 51 51 48 38 34 32 27 22 20 29 59 32 21 16 19 21 20 21 23 23 23 22 20 16 13 11 9 12 13 14 8 5 7 12 17 19 25 28 33 36 38 40
35 44 49 52 50 46 37 33 28 24 24 28 42 69 22 15 18 16 18 16 19 24 22 20 19 18 15 12 16 13 11 10 9 8 6 9 14 16 18 20 26 30 35 40 42
36 48 52 52 51 44 37 29 48 58 31 35 28 24 18 18 18 15 14 14 18 19 15 17 16 16 13 11 11 10 8 8 8 8 8 12 12 15 19 19 22 25 31 36 39
38 51 54 52 51 44 36 62 47 64 40 16 32 29 25 23 18 12 14 12 13 13 13 16 20 15 11 10 9 9 10 11 11 12 16 13 16 16 18 20 23 24 26 30 37
40 56 57 54 50 39 30 37 68 66 48 26 26 24 18 21 13 11 13 11 12 14 13 15 14 14 13 11 10 10 10 15 15 16 15 13 20 23 21 25 28 28 28 31 40
43 59 60 56 47 56 45 27 36 48 40 21 20 19 19 18 14 15 15 14 12 12 16 18 16 14 11 11 13 14 14 14 14 18 18 12 21 21 26 27 28 30 32 36 42
46 60 59 58 93 61 70 75 68 75 45 15 15 18 17 15 15 16 18 13 14 13 14 17 17 13 12 16 16 32 16 16 16 18 16 18 16 58 26 28 28 31 35 39 46
49 64 64 62 45 58 68 81 87 58 38 18 15 16 17 14 14 16 12 14 15 14 12 17 16 14 16 18 17 18 19 17 15 16 25 15 21 34 26 22 26 32 39 46 51
52 66 63 53 63 62 58 88 54 44 17 16 15 14 16 15 16 15 14 14 13 22 19 16 15 18 16 18 18 17 19 22 23 28 26 16 20 16 13 18 21 32 40 47 50
57 71 65 66 79 75 89 61 46 22 19 13 12 14 17 14 15 17 14 14 11 14 17 18 27 18 16 16 16 18 15 23 28 26 18 20 20 13 14 14 18 30 36 43 44
68 79 74 48 50 74 71 66 37 15 14 16 14 17 18 16 16 19 18 14 12 13 19 18 20 18 18 17 15 16 24 17 24 28 30 18 12 12 19 18 21 30 34 39 39
79 83 68 43 46 78 57 47 24 17 15 14 18 16 20 18 17 19 18 16 19 19 18 16 21 18 21 20 20 21 16 25 22 31 34 18 17 14 24 22 22 29 32 35 35
93 75 42 39 47 68 56 38 20 22 21 17 16 16 16 18 16 18 18 21 20 20 17 14 18 26 23 23 16 23 20 20 22 29 35 26 17 15 13 19 22 25 29 32 33
88 60 99 54 54 53 47 28 19 23 27 20 20 15 18 17 19 17 16 16 22 20 18 16 21 37 24 21 20 20 20 20 30 26 30 39 22 16 19 20 21 23 26 30 32
76 58 99 81 62 69 33 22 21 24 23 23 19 16 15 18 21 18 17 38 35 26 20 24 24 36 29 25 21 19 18 18 17 31 25 49 21 16 19 22 21 22 26 30 31
55 58 91 97 47 37 33 25 27 27 21 20 17 19 24 24 22 26 26 35 37 29 35 29 22 26 34 24 20 26 18 18 20 30 26 23 15 13 15 17 18 23 24 27 31
53 41 45 74 50 35 28 24 22 27 25 25 26 22 22 26 28 30 30 37 38 42 31 30 33 25 24 24 20 18 18 18 18 18 24 18 10 9 10 12 13 18 24 24 32
50 36 39 45 40 34 34 23 22 22 25 28 24 20 20 25 27 26 30 33 34 37 35 33 37 37 44 27 26 25 19 15 16 17 14 12 14 10 13 15 18 20 25 27 32
63 41 37 48 42 34 31 22 20 22 36 24 20 25 25 32 37 37 34 30 28 37 40 40 51 46 36 38 36 58 37 22 16 15 16 21 16 17 19 18 20 21 26 30 33

GFSSW_850_rhum_012.txt.gz
RH
23 21 19 20 20 22 23 25 30 30 28 30 31 27 25 16 11 12 13 15 26 14 17 30 14 22 20 15 12 8 10 12 11 11 38 55 52 40 31 24 34 40 35 55 80
25 23 21 21 23 24 25 29 30 27 28 32 30 26 21 13 13 14 26 14 16 15 19 27 20 17 17 14 12 9 12 12 29 32 40 51 65 44 22 37 44 51 57 80 80
27 24 22 23 26 26 29 32 31 29 32 34 30 23 15 14 40 31 22 10 14 12 14 20 16 15 14 11 11 9 12 10 42 46 32 34 48 27 28 46 66 74 69 71 80
27 23 23 26 28 30 33 33 34 31 34 34 28 20 15 16 36 30 20 10 10 12 20 22 13 12 12 12 10 10 8 10 33 28 37 24 27 34 36 52 42 54 56 68 72
27 25 26 27 30 35 35 35 34 32 35 33 26 17 15 61 37 25 18 18 10 16 27 15 12 11 13 11 9 10 10 10 11 14 16 21 22 31 35 31 44 49 43 57 64
27 28 27 30 34 38 38 37 34 33 35 32 23 17 24 40 21 27 18 16 16 19 21 14 13 12 11 9 9 10 10 8 9 10 21 24 24 23 32 37 41 38 38 47 49
33 31 29 32 39 39 40 37 35 32 34 28 21 18 53 34 23 31 24 20 23 18 17 14 14 13 12 14 11 11 12 9 12 12 16 26 21 20 29 34 35 34 35 36 38
38 31 31 38 43 40 40 36 34 31 29 23 19 22 55 26 23 24 27 26 25 21 20 17 20 18 16 16 12 11 10 14 16 14 12 10 18 18 29 30 30 30 32 32 34
48 37 34 44 46 44 42 35 30 27 23 21 27 44 39 25 19 18 19 21 19 22 20 19 20 20 19 20 14 13 15 24 19 14 9 6 15 16 24 26 27 30 32 33 34
55 40 38 48 48 46 43 31 25 22 24 26 30 58 23 19 15 15 16 18 18 21 22 21 19 20 19 16 19 18 15 17 15 11 6 7 14 15 18 39 74 28 30 34 34
63 44 43 51 51 49 42 28 58 68 72 33 28 26 15 14 17 16 13 14 17 20 21 18 20 22 16 17 16 14 13 12 10 7 7 12 14 15 15 28 27 29 30 34 36
65 47 44 56 55 53 43 68 52 65 55 34 20 28 23 22 18 14 12 13 16 18 14 17 22 16 16 14 15 13 13 10 8 8 9 10 13 13 14 15 20 24 30 33 36
71 47 43 57 57 50 39 28 56 59 50 29 17 19 20 18 16 12 12 12 13 14 15 30 26 13 14 16 16 12 13 15 12 9 9 24 18 14 14 15 16 18 22 28 33
77 56 46 60 55 47 37 24 34 51 50 25 19 20 19 17 14 11 12 11 12 16 15 38 24 16 15 13 11 23 20 14 18 27 18 23 33 52 32 16 19 20 22 24 29
77 61 47 66 87 67 76 55 63 83 57 18 17 16 16 14 12 12 13 13 14 14 20 20 16 16 15 16 15 23 21 18 13 17 22 30 30 40 39 30 23 23 25 27 33
79 61 53 70 60 51 74 74 88 73 55 18 15 16 14 14 12 12 13 13 12 14 16 24 17 16 19 14 14 17 18 19 13 16 47 32 39 43 42 33 32 23 27 31 36
83 68 52 70 73 63 60 98 73 52 17 18 17 14 15 15 13 13 15 13 15 20 21 19 16 14 14 13 14 14 18 26 38 47 40 15 28 36 36 33 61 68 29 34 42
89 81 56 72 88 88 85 95 58 27 21 10 12 14 17 13 14 13 13 14 12 13 17 21 23 15 12 12 25 18 14 33 78 79 43 21 27 15 20 30 53 43 33 41 46
99 97 73 61 71 99 98 93 48 22 16 14 12 16 16 13 13 15 14 13 11 11 20 44 33 18 14 12 14 12 18 14 23 52 39 22 12 8 15 14 16 28 34 42 45
99 99 59 57 71 98 94 70 36 20 13 13 15 14 17 16 15 16 17 12 11 11 16 61 68 33 17 17 16 19 14 26 26 39 38 19 19 21 21 19 18 26 32 37 41
99 82 53 61 68 90 85 54 38 20 14 16 14 14 14 17 14 16 16 13 14 15 14 17 40 23 21 21 15 20 20 18 17 34 56 52 23 15 16 16 20 21 31 33 38
84 67 74 67 74 46 65 41 28 21 17 18 15 13 14 16 16 15 25 20 15 14 19 14 19 46 24 16 14 17 22 18 55 37 50 60 34 14 16 14 16 18 24 31 34
75 71 91 65 55 66 48 39 27 24 20 23 18 17 13 17 19 16 14 31 28 19 21 18 24 44 30 24 20 21 15 18 19 41 47 69 38 14 15 14 14 16 19 26 31
64 83 99 94 44 44 50 38 32 24 18 19 18 16 15 17 16 19 18 32 32 26 30 29 24 25 44 26 22 28 19 14 19 60 46 40 19 13 16 17 16 18 18 21 27
73 58 68 91 67 47 43 35 30 24 21 19 19 16 22 24 22 23 20 36 34 38 30 28 33 25 20 18 22 23 19 18 17 21 32 27 17 12 11 12 12 15 19 20 20
75 50 55 56 51 54 50 40 28 21 24 25 24 19 20 25 22 25 22 35 34 37 31 31 43 41 44 27 24 27 22 19 16 15 16 15 16 10 15 16 16 15 16 21 20
77 60 45 56 53 54 52 35 27 22 21 20 20 21 22 27 29 35 32 28 26 38 41 42 64 62 54 38 43 54 42 26 23 16 16 24 18 13 14 16 18 19 19 21 24

GFSSW_850_rhum_015.txt.gz
RH
24 24 22 20 19 20 21 22 25 26 26 22 25 30 25 17 9 10 12 17 14 14 11 21 16 11 23 23 19 15 16 16 34 58 60 56 52 41 46 46 41 50 54 66 73
24 24 24 22 21 21 24 24 27 28 27 23 28 30 23 12 13 26 25 23 16 12 10 23 28 13 20 18 17 17 18 17 41 43 53 49 46 42 40 55 76 49 70 84 86
28 24 25 23 22 25 26 27 30 29 26 26 30 27 17 12 39 32 21 15 12 12 11 22 26 18 18 17 17 14 16 28 40 35 39 42 46 49 41 56 54 51 52 86 81
35 23 25 25 25 27 29 32 32 31 27 29 30 23 14 15 35 29 18 14 10 10 15 20 20 20 17 17 13 15 11 11 25 30 39 43 45 50 42 45 52 52 55 65 70
43 26 25 26 28 29 32 34 34 32 28 29 28 20 15 38 26 28 17 16 10 14 18 22 23 20 16 14 13 13 12 11 14 27 28 36 45 35 45 38 54 66 67 64 67
53 36 26 27 30 32 36 36 36 32 29 28 26 20 21 60 29 28 20 16 14 15 16 22 18 14 13 14 16 10 10 9 10 20 24 28 34 30 39 40 43 61 59 61 64
64 43 29 27 30 34 40 39 37 31 28 26 24 21 23 14 27 31 29 18 17 14 18 18 16 19 18 21 17 13 12 10 15 24 25 21 36 39 40 42 43 52 55 59 51
78 53 35 29 30 39 43 41 34 28 25 24 22 26 21 22 21 23 24 27 24 22 21 18 20 19 18 18 19 14 14 17 17 18 23 23 37 41 39 40 36 45 47 52 44
95 62 45 31 32 42 45 40 30 24 22 20 37 77 35 28 22 16 22 26 26 24 22 22 20 20 21 27 31 18 25 26 19 14 18 23 33 36 33 36 35 33 35 39 40
99 71 53 34 36 46 47 37 26 23 23 22 34 64 20 23 15 17 17 20 18 21 22 22 19 27 28 31 34 22 28 25 24 16 16 13 24 36 32 33 39 37 38 34 36
99 83 56 35 37 51 50 37 64 68 56 20 25 21 22 20 17 16 15 15 18 22 28 22 28 33 25 22 19 18 16 23 20 16 13 16 23 35 40 34 29 41 45 44 35
96 91 59 35 40 54 54 40 60 63 65 47 48 32 28 25 20 17 15 15 19 29 22 24 29 21 17 19 21 22 24 22 14 9 9 18 22 23 50 47 32 49 47 46 35
94 96 65 39 46 54 49 30 34 55 67 46 35 25 22 23 21 17 14 13 18 24 19 28 22 23 19 21 22 21 25 21 18 12 14 21 28 30 26 34 49 56 42 47 39
100 99 69 45 53 78 47 47 25 34 85 41 36 16 16 19 21 15 14 13 15 19 28 28 21 24 24 23 19 28 21 25 19 24 28 20 47 46 28 27 27 35 40 36 37
99 100 75 46 69 79 77 80 71 74 91 27 21 17 18 20 15 15 14 13 16 21 20 26 28 30 29 22 18 22 20 22 23 25 36 28 40 48 35 30 31 27 25 34 37
100 100 88 52 60 57 74 81 78 80 90 30 20 22 22 18 16 14 12 13 13 17 17 23 18 23 24 17 18 18 20 22 27 32 57 37 39 53 48 34 32 32 23 28 37
100 100 92 53 60 82 58 79 96 97 28 24 23 21 23 21 19 17 18 20 23 26 32 23 20 26 24 21 20 23 31 48 46 69 65 39 44 37 41 30 32 34 24 31 40
100 100 94 58 70 86 85 97 98 46 39 17 21 22 24 20 20 19 22 25 20 20 30 35 43 26 18 17 26 24 29 59 54 85 63 47 44 34 22 29 28 25 24 27 40
98 100 100 59 68 97 96 98 74 48 24 25 18 24 23 19 17 21 22 22 16 19 29 41 37 34 27 24 22 21 32 30 67 69 83 51 31 22 32 36 43 37 37 36 42
100 100 98 61 60 98 97 80 63 35 28 21 29 21 27 23 21 22 24 18 17 15 34 56 52 46 35 31 20 21 21 38 54 69 55 31 30 35 30 31 44 53 42 45 46
100 99 93 77 67 99 89 72 56 40 32 28 26 22 21 24 25 23 23 18 17 26 40 53 53 56 43 35 27 27 27 23 31 56 61 74 46 18 22 23 41 45 42 43 46
100 93 66 62 96 82 87 65 47 39 35 35 20 21 22 23 24 25 27 36 25 20 34 47 57 76 50 25 20 20 24 35 63 36 72 76 53 20 18 17 19 26 38 40 42
94 81 86 53 75 89 56 55 53 46 42 30 27 23 22 27 42 23 35 31 26 28 27 32 34 61 42 35 31 23 21 20 40 62 51 66 51 21 17 16 16 18 22 36 39
92 86 98 97 53 58 57 54 60 44 43 32 27 28 27 28 31 30 47 36 31 36 28 30 35 43 57 41 32 32 27 23 31 67 54 62 36 23 22 22 19 17 18 26 36
94 69 73 95 91 71 50 48 54 55 37 29 30 30 30 24 24 27 48 46 38 36 31 39 41 30 34 36 29 26 29 29 22 35 45 38 34 27 20 22 20 19 18 18 22
94 58 67 72 71 79 55 55 50 43 38 34 36 29 27 28 34 30 40 46 46 43 37 38 61 43 42 39 42 38 35 32 31 25 22 24 26 18 19 17 18 19 20 22 22
97 58 59 74 75 74 54 54 44 39 33 22 32 33 33 37 33 36 34 45 43 52 50 52 68 69 58 49 45 53 37 33 32 29 26 29 24 22 32 28 23 21 21 24 24